Weather History for Wellsville, NY

Change the Weather History Date:

Friday, October 12, 2012

  Actual Average (KBFD) Record (KBFD)
Temperature  
Mean Temperature 39 °F 48 °F  
Max Temperature 46 °F 58 °F 76 °F (1961)
Min Temperature 30 °F 37 °F 23 °F (1964)
Degree Days  
Heating Degree Days 26 13  
Month to date heating degree days 137  
Since 1 July heating degree days 554  
Cooling Degree Days 0 0  
Month to date cooling degree days 0  
Year to date cooling degree days 192  
Moisture  
Dew Point 29 °F    
Average Humidity 68    
Maximum Humidity 93    
Minimum Humidity 40    
Precipitation  
Precipitation 0.06 in 0.11 in 0.54 in (1978)
Month to date precipitation 1.42  
Year to date precipitation 35.29  
Sea Level Pressure  
Sea Level Pressure 30.23 in    
Wind  
Wind Speed 10 mph (NW)    
Max Wind Speed 17 mph    
Max Gust Speed 26 mph    
Visibility 10 miles    
Events Rain    
T = Trace of Precipitation, MM = Missing Value Source: NWS Daily Summary

Daily Weather History Graph

Daily Weather History Graph

Search for Another Location

Airport:

Trip Planner

Search our weather history database for the weather conditions in past years. The results will help you decide how hot, cold, wet, or windy it might be!

Date:

Astronomy

Oct. 12, 2012 Rise Set
Actual Time 7:21 AM EDT 6:34 PM EDT
Civil Twilight 6:53 AM EDT 7:02 PM EDT
Nautical Twilight 6:21 AM EDT 7:34 PM EDT
Astronomical Twilight 5:48 AM EDT 8:07 PM EDT
Moon 3:59 AM EDT (10/12) 4:45 PM EDT (10/12)
Length of Visible Light 12h 08m
Length of Day
11h 12m
Waning Crescent, 11% of the Moon is Illuminated
Oct 12
Waning Crescent
Oct 15
New
Oct 21
First Quarter
Oct 29
Full
Nov 6
Last Quarter

Hourly Weather History & Observations

Time (EDT) Temp. Windchill Dew Point Humidity Pressure Visibility Wind Dir Wind Speed Gust Speed Precip Events Conditions
12:56 AM 45.0 °F 39.3 °F 28.0 °F 52% 30.10 in 10.0 mi WSW 11.5 mph 19.6 mph N/A   Scattered Clouds
1:56 AM 46.0 °F 40.6 °F 28.0 °F 50% 30.08 in 10.0 mi WSW 11.5 mph 19.6 mph N/A   Clear
2:56 AM 46.0 °F 41.9 °F 28.9 °F 51% 30.08 in 10.0 mi WSW 8.1 mph - N/A   Overcast
3:29 AM 46.4 °F 43.5 °F 28.4 °F 50% 30.05 in 10.0 mi West 5.8 mph - N/A   Overcast
3:56 AM 46.0 °F 41.0 °F 30.9 °F 56% 30.08 in 10.0 mi WNW 10.4 mph - 0.00 in Rain Light Rain
4:51 AM 42.8 °F 36.6 °F 37.4 °F 81% 30.09 in 10.0 mi NNW 11.5 mph - 0.00 in Rain Light Rain
4:56 AM 42.1 °F 36.6 °F 37.9 °F 85% 30.12 in 10.0 mi NNW 9.2 mph - 0.00 in Rain Light Rain
5:19 AM 41.0 °F 33.9 °F 37.4 °F 87% 30.10 in 10.0 mi NNW 12.7 mph - 0.01 in Rain Light Rain
5:56 AM 37.9 °F 29.2 °F 35.1 °F 89% 30.15 in 10.0 mi NNW 15.0 mph 20.7 mph 0.04 in Rain Light Rain
6:56 AM 36.0 °F 30.3 °F 33.1 °F 89% 30.19 in 8.0 mi NNW 6.9 mph - 0.01 in Rain Light Rain
7:17 AM 35.6 °F 29.2 °F 32.0 °F 87% 30.15 in 10.0 mi NW 8.1 mph - 0.01 in Rain Light Rain
7:56 AM 36.0 °F 29.0 °F 33.1 °F 89% 30.21 in 10.0 mi NW 9.2 mph - 0.01 in   Overcast
8:06 AM 35.6 °F 27.5 °F 33.8 °F 93% 30.17 in 10.0 mi NW 11.5 mph - N/A   Overcast
8:41 AM 37.4 °F 30.3 °F 33.8 °F 87% 30.20 in 10.0 mi NW 10.4 mph - N/A   Overcast
8:56 AM 37.0 °F 30.4 °F 33.1 °F 86% 30.24 in 10.0 mi WNW 9.2 mph - N/A   Mostly Cloudy
9:09 AM 37.4 °F 30.3 °F 33.8 °F 87% 30.21 in 10.0 mi NW 10.4 mph - N/A   Mostly Cloudy
9:56 AM 39.9 °F 33.4 °F 33.1 °F 77% 30.26 in 10.0 mi NNW 10.4 mph 23.0 mph N/A   Overcast
10:56 AM 41.0 °F 32.8 °F 30.0 °F 65% 30.29 in 10.0 mi NW 16.1 mph 25.3 mph N/A   Mostly Cloudy
11:41 AM 42.8 °F 37.0 °F 28.4 °F 57% 30.27 in 10.0 mi NW 10.4 mph 23.0 mph 0.00 in   Mostly Cloudy
11:56 AM 41.0 °F 32.8 °F 30.0 °F 65% 30.32 in 10.0 mi NNW 16.1 mph 26.5 mph 0.00 in Rain Light Rain
12:56 PM 44.1 °F 37.4 °F 26.1 °F 49% 30.34 in 10.0 mi NNW 13.8 mph 24.2 mph 0.00 in   Mostly Cloudy
1:56 PM 42.1 °F 33.9 °F 26.1 °F 53% 30.35 in 10.0 mi NNW 17.3 mph 20.7 mph N/A   Mostly Cloudy
4:56 PM 43.0 °F 36.0 °F 19.9 °F 40% 30.38 in 10.0 mi NNW 13.8 mph 21.9 mph N/A   Scattered Clouds
5:56 PM 39.9 °F 33.4 °F 19.0 °F 43% 30.40 in 10.0 mi NNW 10.4 mph - N/A   Clear
7:56 PM 35.1 °F - 19.0 °F 52% 30.45 in 10.0 mi Calm Calm - N/A   Clear
9:56 PM 32.0 °F - 19.0 °F 59% 30.47 in 10.0 mi Calm Calm - N/A   Clear
10:56 PM 30.0 °F - 19.0 °F 64% 30.48 in 10.0 mi Calm Calm - N/A   Clear